Tracking 30143 objects as of 26-Jan-2025
HD Live streaming from Space Station
objects crossing your sky now

STARLINK-31267

Track STARLINK-31267 now!
10-day predictions


NORAD ID: 59468
Int'l Code: 2024-068P
Perigee: 449.3 km
Apogee: 453.1 km
Inclination: 43.0 °
Period: 93.5 minutes
Semi major axis: 6822 km
RCS: Unknown
Launch date: April 10, 2024
Source: United States (US)
Launch site: AIR FORCE EASTERN TEST RANGE (AFETR)
Your satellite tracking list
Your tracking list is empty




NASA's NSSDC Master Catalog

Two Line Element Set (TLE):
1 59468U 24068P   25025.44366900 -.00001294  00000-0 -23709-4 0  9991
2 59468  43.0030 182.0783 0002778 266.5046  93.5493 15.40685700 46061
Source of the keplerian elements: AFSPC